Weather History for Dalhart, TX

Change the Weather History Date:

Friday, January 20, 2012

  Actual Average Record
Temperature  
Mean Temperature 49 °F 35 °F  
Max Temperature 66 °F 50 °F 78 °F (1986)
Min Temperature 32 °F 19 °F -6 °F (1960)
Degree Days  
Heating Degree Days 16 30  
Month to date heating degree days 509 611  
Since 1 July heating degree days 2385 2554  
Cooling Degree Days 0 0  
Month to date cooling degree days 0 0  
Year to date cooling degree days 0 0  
Moisture  
Dew Point 25 °F    
Average Humidity 41    
Maximum Humidity 59    
Minimum Humidity 22    
Precipitation  
Precipitation 0.00 in 0.02 in 0.66 in (2007)
Month to date precipitation 0.00 0.30  
Year to date precipitation 0.00 0.30  
Snow  
Snow 0.00 in 0.10 in 8.00 in (2007)
Month to date snowfall 0.0 2.5  
Since 1 July snowfall 8.3 8.7  
Snow Depth 0.00 in    
Sea Level Pressure  
Sea Level Pressure 29.75 in    
Wind  
Wind Speed 13 mph (North)    
Max Wind Speed 26 mph    
Max Gust Speed 33 mph    
Visibility 10 miles    
Events      
T = Trace of Precipitation, MM = Missing Value Source: NWS Daily Summary

Daily Weather History Graph

Daily Weather History Graph

Search for Another Location

Airport:

Trip Planner

Search our weather history database for the weather conditions in past years. The results will help you decide how hot, cold, wet, or windy it might be!

Date:

Astronomy

Jan. 20, 2012 Rise Set
Actual Time 7:58 AM CST 6:04 PM CST
Civil Twilight 7:30 AM CST 6:31 PM CST
Nautical Twilight 6:59 AM CST 7:03 PM CST
Astronomical Twilight 6:28 AM CST 7:33 PM CST
Moon 5:35 AM CST (1/20) 3:40 PM CST (1/20)
Length of Visible Light 11h 00m
Length of Day
10h 05m
Waning Crescent, 8% of the Moon is Illuminated
Jan 20
Waning Crescent
Jan 23
New
Jan 30
First Quarter
Feb 7
Full
Feb 14
Last Quarter

Hourly Weather History & Observations

Time (CST) Temp. Windchill Dew Point Humidity Pressure Visibility Wind Dir Wind Speed Gust Speed Precip Events Conditions
12:53 AM 57.0 °F - 26.1 °F 30% 29.57 in 10.0 mi WSW 26.5 mph 33.4 mph N/A   Clear
1:53 AM 54.0 °F - 25.0 °F 33% 29.57 in 10.0 mi WSW 15.0 mph - N/A   Clear
2:53 AM 50.0 °F - 24.1 °F 36% 29.58 in 10.0 mi SW 18.4 mph - N/A   Clear
3:53 AM 51.1 °F - 24.1 °F 35% 29.54 in 10.0 mi SW 17.3 mph - N/A   Clear
4:53 AM 46.0 °F 39.0 °F 24.1 °F 42% 29.57 in 10.0 mi WSW 17.3 mph - N/A   Clear
5:53 AM 45.0 °F 37.4 °F 25.0 °F 46% 29.60 in 10.0 mi WSW 18.4 mph - N/A   Clear
6:53 AM 42.1 °F 33.1 °F 26.1 °F 53% 29.60 in 10.0 mi SW 20.7 mph - N/A   Clear
7:53 AM 39.9 °F 35.8 °F 27.0 °F 60% 29.65 in 10.0 mi WNW 5.8 mph - N/A   Clear
8:53 AM 43.0 °F 38.8 °F 25.0 °F 49% 29.68 in 10.0 mi NNW 6.9 mph - N/A   Clear
9:53 AM 55.9 °F - 27.0 °F 33% 29.67 in 10.0 mi WNW 12.7 mph - N/A   Clear
10:53 AM 62.1 °F - 25.0 °F 24% 29.68 in 10.0 mi WNW 11.5 mph - N/A   Clear
11:53 AM 64.0 °F - 24.1 °F 22% 29.70 in 10.0 mi North 17.3 mph - N/A   Clear
12:53 PM 62.1 °F - 27.0 °F 26% 29.67 in 10.0 mi ENE 21.9 mph - N/A   Clear
1:53 PM 60.1 °F - 27.0 °F 28% 29.69 in 10.0 mi ENE 18.4 mph - N/A   Clear
2:53 PM 60.8 °F - 26.6 °F 27% 29.82 in 10.0 mi ENE 16.1 mph - N/A   Clear
3:53 PM 59.0 °F - 26.1 °F 28% 29.76 in 10.0 mi East 17.3 mph - N/A   Clear
4:53 PM 57.9 °F - 25.0 °F 28% 29.80 in 10.0 mi ENE 10.4 mph - N/A   Clear
5:53 PM 53.1 °F - 25.0 °F 34% 29.85 in 10.0 mi ENE 12.7 mph - N/A   Clear
6:53 PM 44.1 °F 39.5 °F 25.0 °F 47% 29.93 in 10.0 mi East 8.1 mph - N/A   Clear
7:53 PM 41.0 °F 35.2 °F 25.0 °F 53% 29.98 in 10.0 mi ENE 9.2 mph - N/A   Clear
8:53 PM 39.0 °F 35.7 °F 24.1 °F 55% 30.01 in 10.0 mi ENE 4.6 mph - N/A   Clear
9:53 PM 39.9 °F 35.1 °F 25.0 °F 55% 30.01 in 10.0 mi NNE 6.9 mph - N/A   Clear
10:53 PM 37.9 °F 35.5 °F 25.0 °F 60% 30.00 in 10.0 mi North 3.5 mph - N/A   Clear
11:53 PM 33.1 °F 28.7 °F 25.0 °F 72% 30.02 in 10.0 mi NW 4.6 mph - N/A   Clear